Regional Weather Roundup
Issued by NWS Sioux Falls, SD

Home | Current Version | Previous Version | Text Only | Print | Product List | Glossary Off
Versions: 1 2 3 4 5 6 7 8 9 10 11 12 13 14 15 16 17 18 19 20 21 22 23 24 25 26 27 28 29 30 31 32 33 34 35 36 37 38 39 40 41 42 43 44 45 46 47 48 49 50

000
ASUS43 KFSD 252302
RWRFSD

WEATHER ROUNDUP FOR SE SOUTH DAKOTA/SW MINNESOTA/NW IOWA
NATIONAL WEATHER SERVICE SIOUX FALLS SD
600 PM CDT MON SEP 25 2017

NOTE: "FAIR" INDICATES FEW OR NO CLOUDS BELOW 12,000 FEET WITH NO
SIGNIFICANT WEATHER AND OR OBSTRUCTIONS TO VISIBILITY.


SDZ038>040-050-052>070-260000-
SOUTHEAST SOUTH DAKOTA

CITY           SKY/WX    TMP DP  RH WIND       PRES   REMARKS
BROOKINGS      LGT RAIN  52  49  89 N10       30.01F
CHAMBERLAIN    CLOUDY    55  49  81 N6        30.06F
HURON          CLOUDY    53  48  83 N12       30.06S
MADISON        LGT RAIN  50  50 100 N14       30.00F
MITCHELL       LGT RAIN  53  51  93 N8        30.05S
SIOUX FALLS    CLOUDY    55  53  93 N9        30.00S
WINNER         CLOUDY    53  47  79 N9        30.09R
YANKTON        CLOUDY    53  52  96 N12       30.01S
$$

MNZ071-072-080-081-089-090-097-098-260000-
SOUTHWEST MINNESOTA

CITY           SKY/WX    TMP DP  RH WIND       PRES   REMARKS
FAIRMONT       CLOUDY    58  56  93 N5        29.98R
JACKSON        CLOUDY    55  54  94 CALM      29.98F
LUVERNE        CLOUDY    54  50  87 NE7       29.98F
MARSHALL       LGT RAIN  55  52  89 N9        30.01R
MONTEVIDEO     RAIN      57  52  82 NE7       30.02S
PIPESTONE      RAIN      54  52  94 NE10      29.99F
REDWOOD FALLS  LGT RAIN  59  53  80 N7        29.99S
TRACY          DRIZZLE   56  55  97 N7        30.00S
WORTHINGTON    LGT RAIN  55  54  96 N9        29.99S FOG
$$

IAZ001>003-012>014-020>022-031-032-NEZ013-014-SDZ071-260000-
NORTHWEST IOWA

CITY           SKY/WX    TMP DP  RH WIND       PRES   REMARKS
CHEROKEE       CLOUDY    58  58 100 NE6       29.96S
DENISON        CLOUDY    64  63  94 N9        29.94F
ESTHERVILLE    CLOUDY    57  57 100 N9        29.97R
LE MARS        CLOUDY    57  55  94 NW7       29.98R FOG
ORANGE CITY    DRIZZLE   57  57 100 N5        29.98R
SHELDON        LGT RAIN  55  55 100 N7        29.96S
SIOUX CITY     CLOUDY    57  57 100 NW9       29.98R
SPENCER        CLOUDY    58  56  93 NE8       29.97S
STORM LAKE     CLOUDY    59  59 100 NE8       29.96R
$$

ABBREVIATIONS USED IN REMARKS
   TC - TEMPERATURE IN CELSIUS
  WCI - WIND CHILL INDEX
   HX - HEAT INDEX
  VSB - VISIBILITY





USA.gov is the U.S. government's official web portal to all federal, state and local government web resources and services.